Torna al catalogo

GLOBALSTAR M043

AttivoComunicazioniMEO
NORAD 25874·PAYLOAD·🇺🇸 United States

Lanciato Jul 25, 1999 da Cape Canaveral Space Force Station

Loading…

Prossimi Passaggi (prossime 24 ore)

TLE

AggiornatoSource: Space-Track

Epoca: Sep 14, 2026, 15:09 UTC

1 25874U 99041C   26257.63182649 -.00000049  00000-0  56500-3 0  9993
2 25874  51.9375 102.9411 0014029   8.3945  25.1973 11.25700898174056

Traccia GLOBALSTAR M043 in tempo reale con AllMySat

Download on the App Store